Weather History for EGOM - February, 2013

Change the Weather History Date:

Monday, February 18, 2013

  Actual Average Record
Temperature  
Mean Temperature 35 °F -  
Max Temperature 44 °F - - ()
Min Temperature 26 °F - - ()
Degree Days  
Heating Degree Days 30    
Moisture  
Dew Point 29 °F    
Average Humidity 86    
Maximum Humidity 100    
Minimum Humidity 57    
Precipitation  
Precipitation 0.00 in - - ()
Sea Level Pressure  
Sea Level Pressure 30.07 in    
Wind  
Wind Speed 4 mph ()    
Max Wind Speed 10 mph    
Max Gust Speed -    
Visibility 4.3 miles    
Events Fog , Snow    
T = Trace of Precipitation, MM = Missing Value Source: Averaged Metar Reports

Daily Weather History Graph

Daily Weather History Graph

Search for Another Location

Airport or City:

Trip Planner

Search our weather history database for the weather conditions in past years. The results will help you decide how hot, cold, wet, or windy it might be!

Date:

Astronomy

Feb. 18, 2013 Rise Set
Actual Time 7:25 AM GMT 5:23 PM GMT
Civil Twilight 6:48 AM GMT 6:00 PM GMT
Nautical Twilight 6:06 AM GMT 6:43 PM GMT
Astronomical Twilight 5:24 AM GMT 7:25 PM GMT
Moon 10:29 AM GMT (2/18) 2:20 AM GMT (2/18)
Length of Visible Light 11h 12m
Length of Day
9h 57m
First Quarter, 56% of the Moon is Illuminated
Feb 18
First Quarter
Feb 25
Full
Mar 4
Last Quarter
Mar 11
New
Mar 19
First Quarter

Hourly Weather History & Observations

Time (GMT) Temp. Windchill Dew Point Humidity Pressure Visibility Wind Dir Wind Speed Gust Speed Precip Events Conditions
12:50 AM 32.0 °F 28.7 °F 30.2 °F 93% 30.09 in 6.2 mi East 3.5 mph - N/A   Unknown
1:50 AM 30.2 °F 25.4 °F 28.4 °F 93% 30.06 in 6.2 mi East 4.6 mph - N/A   Unknown
2:50 AM 28.4 °F 24.6 °F 26.6 °F 93% 30.06 in 5.0 mi NNE 3.5 mph - N/A   Mist
3:50 AM 30.2 °F 24.3 °F 28.4 °F 93% 30.06 in 5.0 mi NE 5.8 mph - N/A   Mist
4:50 AM 26.6 °F 20.0 °F 26.6 °F 100% 30.06 in 3.7 mi NE 5.8 mph - N/A   Mist
5:50 AM 26.6 °F 21.2 °F 24.8 °F 93% 30.06 in - NE 4.6 mph - N/A   Mist
6:50 AM 26.6 °F 16.8 °F 24.8 °F 93% 30.06 in 0.2 mi ENE 10.4 mph - N/A Fog Light Freezing Fog
7:50 AM 28.4 °F 22.2 °F 28.4 °F 100% 30.06 in 0.2 mi NE 5.8 mph - N/A Snow Snow Grains
8:50 AM 28.4 °F 21.2 °F 28.4 °F 100% 30.09 in 0.2 mi NE 6.9 mph - N/A Fog Light Freezing Fog
9:50 AM 30.2 °F 24.3 °F 30.2 °F 100% 30.09 in 1.2 mi NE 5.8 mph - N/A   Mostly Cloudy
10:50 AM 32.0 °F 26.4 °F 32.0 °F 100% 30.09 in 1.9 mi NE 5.8 mph - N/A   Partly Cloudy
11:50 AM 35.6 °F 32.8 °F 35.6 °F 100% 30.09 in 6.2 mi ENE 3.5 mph - N/A   Partly Cloudy
12:50 PM 42.8 °F 41.1 °F 32.0 °F 66% 30.09 in 6.2 mi SSE 3.5 mph - N/A   Haze
1:50 PM 44.6 °F 41.4 °F 30.2 °F 57% 30.06 in - SSW 5.8 mph - N/A   Clear
2:50 PM 44.6 °F 42.2 °F 30.2 °F 57% 30.06 in - WSW 4.6 mph - N/A   Clear
3:50 PM 42.8 °F 40.1 °F 30.2 °F 61% 30.06 in - West 4.6 mph - N/A   Clear
4:50 PM 41.0 °F - 30.2 °F 65% 30.06 in 6.2 mi NW 2.3 mph - N/A   Unknown
5:50 PM 33.8 °F 30.8 °F 26.6 °F 75% 30.06 in 5.6 mi North 3.5 mph - N/A   Haze
6:50 PM 32.0 °F 27.5 °F 28.4 °F 87% 30.09 in 5.0 mi NNW 4.6 mph - N/A   Haze
7:50 PM 32.0 °F 28.7 °F 26.6 °F 80% 30.09 in 5.0 mi NW 3.5 mph - N/A   Haze
8:50 PM 32.0 °F 26.4 °F 28.4 °F 87% 30.09 in 6.2 mi WNW 5.8 mph - N/A   Unknown
9:50 PM 30.2 °F 25.4 °F 26.6 °F 86% 30.09 in 5.0 mi NNW 4.6 mph - N/A   Haze
10:50 PM 32.0 °F 26.4 °F 28.4 °F 87% 30.09 in 5.0 mi WNW 5.8 mph - N/A   Haze
11:50 PM 32.0 °F 26.4 °F 28.4 °F 87% 30.09 in 5.0 mi WNW 5.8 mph - N/A   Haze